PSLV R/B, 46915

Orbit data source: Space-Track

PSLV R/B, 46915 is space debris in LEO originally from a launch on Sat, 07 Nov 2020 UTC launched from the Sirharikota (SRI). Debris objects in space refer to the collection of defunct objects orbiting the Earth. Examples of debris include non-operational satellites, rocket bodies, and fragments generated from explosions, collisions, or faulty payload assembly.

Loading next visibility...
PSLV R/B details
Identifier
46915, 2020-081L
Orbit
LEO
Last TLE update9 hours ago
Origin
Flag of INISRO (IN / IND)
ManufacturerVSSC/LPSC
MissionSpacecraft
Bus & MotorPS-4DL, Unknown motor
Mass920 kg wet, 920 kg dry
Launch date (UTC)
2020-11-07 (4 years ago)
Launch vehicleUnknown
Launch site
Sirharikota (SRI)
Object type
Payload
Rocket body
Debris
Shape & HBRCyl + Cyl + 2 Nozzle, Unknown HBR
Radar Cross Section10.342 m², Large (>1 m²)

Expand to show TLE details & history

TLE from 9 hours ago
0 PSLV R/B
1 46915U 20081L   24361.08986617  .00016986  00000-0  68093-3 0  9996
2 46915  36.8476 344.9480 0027938 353.8223   6.2177 15.23959406228568
Epoch: 2024-12-26T02:09Z
Definitive object data (Epoch: 2024-12-26T02:09:24.437Z)
Latitude-0.00001°
Longitude-142.4781°
Altitude473.933 km
Speed7.642 km/s
True Right ascension22h 59m 47s
True Declination0° 00' 00"
Sunlit
Object was in daylight at TLE epoch
Visualization TLE readout
Latitude5.74691°
Longitude27.64092°
Altitude511.481 km
Speed7.6 km/s
Apparent Right ascension10h 53m 06s
Apparent Declination-59° 36' 47"
Sunlit
Object is in full shadow
Visualization observer readout
Local Sidereal Time10:06:59
Azimuth174.109° S
Elevation-9.984°
Doppler factor1
Orbital elements
Apogee altitude516.076 km
Perigee altitude477.661 km
Semi-major axis6,875.006 km
Eccentricity0.0027938
Inclination36.8476°
RAAN344.948°
Arg. of periapsis353.8223°
True anomaly6.25249°
Mean anomaly6.2177°
Eccentric anomaly6.23509°
Mean motion3.80744 °/min
BSTAR0.00068093
Orbital period94.55 mins
Loading maneuver chart data...
Loading historical data...
Loading historical data...
Loading historical data...
Loading historical data...
Loading historical data...
Loading historical data...
Loading historical data...

PSLV R/B Visibility forecast

Observer location: undefined°, undefined

Span
Click to sort rows by Start time (UTC) header in descending order
Start Az.
Max El. time (UTC)
Max El. Az.
Max El.
End time (UTC)
End Az.
5 mins2024-12-27 03:35:45.629Z221.722° SW2024-12-27 03:37:45.629Z169.216° S30.947°2024-12-27 03:40:45.629Z101.534° ESE
6 mins2024-12-27 05:14:45.629Z252.605° W2024-12-27 05:16:45.629Z210.666° SW37.055°2024-12-27 05:20:45.629Z105.116° ESE
5 mins2024-12-27 06:54:45.629Z244.613° WSW2024-12-27 06:56:45.629Z190.963° SSW28.074°2024-12-27 06:59:45.629Z134.878° SE
|